Date,TemperatureHighF,TemperatureAvgF,TemperatureLowF,DewpointHighF,DewpointAvgF,DewpointLowF,HumidityHigh,HumidityAvg,HumidityLow,PressureMaxIn,PressureMinIn,WindSpeedMaxMPH,WindSpeedAvgMPH,GustSpeedMaxMPH,PrecipitationSumIn
2014-1-1,47.6,33.9,25.5,38.0,30.8,24.0,96,89,68,30.45,30.36,4,1,8,0.01
2014-1-2,48.8,38.2,28.0,39.0,34.2,27.0,97,86,63,30.37,29.98,13,2,20,0.08
2014-1-3,41.2,36.1,25.2,38.0,29.1,23.0,93,76,60,30.31,29.99,20,9,29,0.03
2014-1-4,42.7,27.6,18.8,28.0,22.1,17.0,94,82,44,30.51,30.32,5,1,6,0.00
2014-1-5,42.8,27.6,17.7,27.0,21.0,16.0,94,79,44,30.64,30.50,7,1,11,0.01
2014-1-6,35.5,27.0,19.3,27.0,21.8,17.0,94,81,52,30.52,30.26,3,1,6,0.00
2014-1-7,36.8,32.8,29.8,35.0,31.6,27.0,97,95,87,30.26,30.09,4,0,7,0.20
2014-1-8,39.4,35.1,32.4,39.0,34.5,32.0,98,97,96,30.11,29.81,5,1,11,0.54
2014-1-9,40.9,36.4,32.6,37.0,34.5,31.0,97,93,84,30.04,29.87,15,4,24,0.47
2014-1-10,45.1,40.4,35.3,43.0,37.7,35.0,97,90,77,30.10,29.81,23,8,33,0.27
2014-1-11,49.9,40.7,36.2,45.0,36.6,-99.9,95,88,80,29.87,29.51,20,-4,38,0.65
2014-1-12,44.9,40.2,33.2,41.0,36.9,31.0,96,88,77,30.37,29.88,28,11,35,0.27
2014-1-13,45.6,42.7,39.1,42.0,37.9,-99.9,96,85,77,30.65,30.30,40,-2,48,0.04
2014-1-14,47.0,38.7,31.6,40.0,36.1,29.0,96,91,77,30.67,30.56,15,2,21,0.00
2014-1-15,63.0,39.9,29.7,40.0,29.5,18.0,94,73,19,30.58,30.44,13,4,17,0.00
2014-1-16,51.4,35.5,26.3,36.0,30.2,25.0,100,82,52,30.58,30.44,5,2,7,0.00
2014-1-17,46.0,31.5,22.6,35.0,28.4,21.0,97,89,63,30.43,30.34,9,2,13,0.01
2014-1-18,31.1,29.3,28.4,31.0,28.4,27.0,100,96,94,30.44,30.31,5,0,5,0.00
2014-1-29,39.3,34.4,32.7,37.0,33.7,32.0,98,97,89,29.91,29.71,16,2,19,0.24
2014-1-30,42.1,34.6,29.2,36.0,32.6,29.0,98,92,76,29.96,29.89,12,2,23,0.02
2014-1-31,42.7,34.0,29.2,36.0,31.6,29.0,98,91,71,30.15,29.96,13,3,17,0.01